| time (UTC) | temp C | wind direction | speed KPH | gust KPH | rain 1hr cm | rain 24hr cm | rain mn cm | humidity % | barometer mb |
| 20260507140433 | 22 | 75 | 3.2 | 12.9 | 0.00 | 0.23 | 0.05 | 50 | 1014.4 |
| 20260507135533 | 22 | 329 | 4.8 | 9.7 | 0.00 | 0.23 | 0.05 | 53 | 1014.5 |
| 20260507134633 | 21 | 347 | 3.2 | 12.9 | 0.00 | 0.23 | 0.05 | 56 | 1014.7 |
| 20260507133733 | 21 | 317 | 4.8 | 9.7 | 0.00 | 0.23 | 0.05 | 57 | 1014.9 |
| 20260507132833 | 21 | 293 | 4.8 | 12.9 | 0.00 | 0.23 | 0.05 | 61 | 1014.9 |
| 20260507130133 | 21 | 59 | 8.0 | 11.3 | 0.00 | 0.33 | 0.05 | 57 | 1015.1 |
| 20260507125233 | 22 | 317 | 6.4 | 12.9 | 0.00 | 0.33 | 0.05 | 61 | 1015.2 |
| 20260507124334 | 21 | 291 | 9.7 | 12.9 | 0.00 | 0.36 | 0.05 | 60 | 1015.2 |
| 20260507123433 | 21 | 339 | 4.8 | 12.9 | 0.00 | 0.36 | 0.05 | 61 | 1015.4 |
| 20260507122534 | 20 | 284 | 4.8 | 11.3 | 0.00 | 0.36 | 0.05 | 62 | 1015.3 |
| 20260507121633 | 20 | 255 | 8.0 | 11.3 | 0.00 | 0.38 | 0.05 | 63 | 1015.4 |
| 20260507120733 | 20 | 130 | 3.2 | 4.8 | 0.00 | 0.43 | 0.05 | 66 | 1015.6 |
| 20260507114033 | 18 | 57 | 4.8 | 11.3 | 0.00 | 0.48 | 0.05 | 63 | 1015.7 |
| 20260507113133 | 18 | 336 | 3.2 | 6.4 | 0.00 | 0.48 | 0.05 | 65 | 1015.8 |
| 20260507112234 | 20 | 352 | 4.8 | 6.4 | 0.00 | 0.48 | 0.05 | 68 | 1015.9 |
| 20260507111334 | 18 | 328 | 3.2 | 6.4 | 0.00 | 0.48 | 0.05 | 70 | 1016.0 |
| 20260507110433 | 18 | 342 | 4.8 | 8.0 | 0.00 | 0.48 | 0.05 | 67 | 1016.2 |
| 20260507105533 | 19 | 2 | 3.2 | 11.3 | 0.00 | 0.48 | 0.05 | 69 | 1016.2 |
| 20260507103734 | 18 | 44 | 8.0 | 11.3 | 0.00 | 0.53 | 0.05 | 70 | 1016.3 |
| 20260507102834 | 18 | 322 | 4.8 | 8.0 | 0.00 | 0.53 | 0.05 | 76 | 1016.3 |
| 20260507101934 | 18 | 359 | 3.2 | 6.4 | 0.00 | 0.56 | 0.05 | 81 | 1016.4 |
| 20260507101033 | 17 | 73 | 3.2 | 6.4 | 0.00 | 0.64 | 0.05 | 83 | 1016.3 |
| 20260507100134 | 17 | 348 | 4.8 | 6.4 | 0.00 | 0.64 | 0.05 | 90 | 1016.4 |
| 20260507095235 | 16 | 270 | 3.2 | 6.4 | 0.00 | 0.64 | 0.05 | 92 | 1016.6 |
| 20260507093434 | 14 | 286 | 3.2 | 6.4 | 0.00 | 0.64 | 0.05 | 92 | 1016.6 |
| 20260507092534 | 13 | 291 | 3.2 | 8.0 | 0.00 | 0.64 | 0.05 | 93 | 1016.6 |
| 20260507090734 | 13 | 270 | 6.4 | 8.0 | 0.00 | 0.64 | 0.05 | 95 | 1016.3 |
| 20260507085834 | 13 | 293 | 3.2 | 8.0 | 0.00 | 0.64 | 0.05 | 95 | 1016.2 |
| 20260507084933 | 13 | 278 | 3.2 | 9.7 | 0.00 | 0.64 | 0.05 | 96 | 1016.2 |
| 20260507084033 | 13 | 293 | 4.8 | 11.3 | 0.00 | 0.64 | 0.05 | 96 | 1016.3 |
| 20260507083133 | 13 | 312 | 3.2 | 6.4 | 0.00 | 0.64 | 0.05 | 96 | 1016.2 |
| 20260507082233 | 13 | 343 | 3.2 | 6.4 | 0.00 | 0.64 | 0.05 | 96 | 1016.2 |
| 20260507081333 | 13 | 355 | 3.2 | 6.4 | 0.00 | 0.64 | 0.05 | 97 | 1016.1 |
| 20260507075534 | 12 | 331 | 1.6 | 3.2 | 0.03 | 0.64 | 0.05 | 97 | 1016.0 |
| 20260507074634 | 12 | 321 | 0.0 | 6.4 | 0.03 | 0.64 | 0.05 | 99 | 1016.0 |
| 20260507073734 | 12 | 312 | 3.2 | 9.7 | 0.03 | 0.64 | 0.05 | 99 | 1015.9 |
| 20260507072834 | 12 | 316 | 3.2 | 6.4 | 0.03 | 0.64 | 0.05 | 99 | 1016.0 |
| 20260507071934 | 12 | 324 | 3.2 | 4.8 | 0.03 | 0.64 | 0.05 | 99 | 1015.8 |
| 20260507070141 | 11 | 342 | 0.0 | 3.2 | 0.00 | 0.61 | 0.03 | 99 | 1015.7 |
| 20260507065233 | 11 | 357 | 0.0 | 3.2 | 0.00 | 0.61 | 0.03 | 99 | 1015.8 |
| 20260507064333 | 11 | 353 | 0.0 | 4.8 | 0.00 | 0.61 | 0.03 | 99 | 1015.7 |
| 20260507062534 | 11 | 312 | 1.6 | 6.4 | 0.00 | 0.61 | 0.03 | 99 | 1015.6 |
| 20260507061633 | 11 | 311 | 0.0 | 6.4 | 0.00 | 0.61 | 0.03 | 99 | 1015.6 |
| 20260507055833 | 10 | 314 | 3.2 | 6.4 | 0.00 | 0.61 | 0.03 | 99 | 1015.5 |
| 20260507054933 | 10 | 319 | 3.2 | 4.8 | 0.00 | 0.61 | 0.03 | 99 | 1015.3 |
| 20260507054033 | 10 | 323 | 1.6 | 4.8 | 0.00 | 0.61 | 0.03 | 98 | 1015.2 |
| 20260507053133 | 10 | 328 | 3.2 | 4.8 | 0.00 | 0.61 | 0.03 | 98 | 1015.2 |
| 20260507052234 | 10 | 318 | 3.2 | 6.4 | 0.00 | 0.61 | 0.03 | 98 | 1015.2 |
| 20260507051333 | 10 | 318 | 3.2 | 4.8 | 0.00 | 0.61 | 0.03 | 98 | 1015.0 |
| 20260507050433 | 10 | 332 | 3.2 | 4.8 | 0.00 | 0.61 | 0.03 | 98 | 1015.1 |
| 20260507045533 | 10 | 327 | 1.6 | 3.2 | 0.00 | 0.61 | 0.03 | 98 | 1015.1 |
| 20260507044633 | 10 | 327 | 3.2 | 3.2 | 0.00 | 0.61 | 0.03 | 98 | 1015.1 |
| 20260507043734 | 10 | 333 | 1.6 | 3.2 | 0.00 | 0.61 | 0.03 | 98 | 1015.0 |
| 20260507042834 | 10 | 328 | 1.6 | 4.8 | 0.00 | 0.61 | 0.03 | 98 | 1015.1 |
| 20260507041933 | 10 | 308 | 3.2 | 4.8 | 0.00 | 0.61 | 0.03 | 98 | 1015.1 |
| 20260507040133 | 10 | 319 | 0.0 | 6.4 | 0.00 | 0.61 | 0.03 | 98 | 1015.0 |
| 20260507034333 | 10 | 0 | 0.0 | 0.0 | 0.00 | 0.61 | 0.03 | 98 | 1015.1 |
| 20260507033433 | 10 | 329 | 0.0 | 3.2 | 0.00 | 0.61 | 0.03 | 98 | 1015.0 |
| 20260507032533 | 11 | 324 | 3.2 | 4.8 | 0.00 | 0.61 | 0.03 | 98 | 1015.1 |
| 20260507031633 | 11 | 308 | 3.2 | 6.4 | 0.00 | 0.61 | 0.03 | 98 | 1015.0 |
| 20260507030733 | 11 | 319 | 3.2 | 3.2 | 0.00 | 0.61 | 0.03 | 98 | 1015.0 |
| 20260507025833 | 11 | 340 | 3.2 | 3.2 | 0.00 | 0.61 | 0.03 | 98 | 1014.9 |
| 20260507024933 | 11 | 334 | 1.6 | 3.2 | 0.00 | 0.61 | 0.03 | 98 | 1015.1 |
| 20260507024033 | 11 | 320 | 3.2 | 6.4 | 0.00 | 0.61 | 0.03 | 98 | 1015.1 |
| 20260507023133 | 11 | 314 | 3.2 | 6.4 | 0.00 | 0.61 | 0.03 | 98 | 1015.1 |
| 20260507022233 | 11 | 320 | 4.8 | 6.4 | 0.00 | 0.61 | 0.03 | 98 | 1015.1 |
| 20260507021333 | 11 | 314 | 3.2 | 8.0 | 0.00 | 0.61 | 0.03 | 98 | 1015.1 |
| 20260507020434 | 11 | 317 | 3.2 | 4.8 | 0.00 | 0.61 | 0.03 | 98 | 1014.9 |
| 20260507015533 | 11 | 325 | 3.2 | 6.4 | 0.00 | 0.61 | 0.03 | 98 | 1014.9 |
| 20260507014634 | 11 | 323 | 1.6 | 9.7 | 0.00 | 0.61 | 0.03 | 98 | 1014.9 |
| 20260507013733 | 11 | 291 | 6.4 | 12.9 | 0.00 | 0.61 | 0.03 | 98 | 1014.8 |
| 20260507012833 | 11 | 307 | 8.0 | 11.3 | 0.00 | 0.61 | 0.03 | 98 | 1014.9 |
| 20260507011934 | 11 | 306 | 6.4 | 9.7 | 0.00 | 0.61 | 0.03 | 98 | 1014.9 |
| 20260507011034 | 11 | 307 | 4.8 | 9.7 | 0.00 | 0.61 | 0.03 | 98 | 1014.8 |
| 20260507005233 | 11 | 320 | 4.8 | 8.0 | 0.00 | 0.61 | 0.03 | 98 | 1015.0 |
| 20260507004333 | 11 | 313 | 6.4 | 9.7 | 0.00 | 0.61 | 0.03 | 98 | 1015.0 |
| 20260507002533 | 11 | 317 | 6.4 | 11.3 | 0.00 | 0.61 | 0.03 | 98 | 1015.1 |
| 20260507001633 | 11 | 299 | 6.4 | 9.7 | 0.00 | 0.61 | 0.03 | 97 | 1015.0 |
| 20260507000733 | 11 | 310 | 6.4 | 9.7 | 0.00 | 0.61 | 0.03 | 97 | 1015.0 |
| 20260506235834 | 11 | 290 | 6.4 | 11.3 | 0.00 | 0.61 | 0.03 | 97 | 1015.3 |
| 20260506234933 | 11 | 313 | 6.4 | 8.0 | 0.03 | 0.61 | 0.03 | 97 | 1015.3 |
| 20260506234033 | 11 | 308 | 6.4 | 8.0 | 0.03 | 0.61 | 0.03 | 97 | 1015.2 |
| 20260506231333 | 11 | 307 | 6.4 | 12.9 | 0.03 | 0.61 | 0.03 | 97 | 1015.3 |
| 20260506230433 | 11 | 296 | 8.0 | 12.9 | 0.03 | 0.61 | 0.03 | 97 | 1015.3 |
| 20260506225533 | 11 | 304 | 4.8 | 16.1 | 0.00 | 0.56 | 0.00 | 97 | 1015.2 |
| 20260506224633 | 11 | 297 | 12.9 | 16.1 | 0.00 | 0.56 | 0.00 | 97 | 1015.3 |
| 20260506223733 | 11 | 296 | 9.7 | 12.9 | 0.00 | 0.56 | 0.00 | 97 | 1015.2 |
| 20260506222833 | 11 | 293 | 8.0 | 16.1 | 0.00 | 0.56 | 0.00 | 97 | 1015.2 |
| 20260506221933 | 11 | 295 | 11.3 | 16.1 | 0.00 | 0.56 | 0.00 | 97 | 1015.1 |
| 20260506221033 | 11 | 303 | 8.0 | 11.3 | 0.00 | 0.56 | 0.00 | 97 | 1015.1 |
| 20260506220134 | 11 | 299 | 8.0 | 12.9 | 0.00 | 0.56 | 0.00 | 96 | 1015.1 |
| 20260506215233 | 11 | 291 | 6.4 | 14.5 | 0.00 | 0.56 | 0.56 | 96 | 1015.0 |
| 20260506213434 | 11 | 286 | 12.9 | 12.9 | 0.00 | 0.56 | 0.56 | 96 | 1015.0 |
| 20260506211633 | 11 | 297 | 11.3 | 14.5 | 0.00 | 0.56 | 0.56 | 96 | 1014.8 |
| 20260506210733 | 11 | 282 | 9.7 | 14.5 | 0.00 | 0.56 | 0.56 | 96 | 1014.7 |
| 20260506204934 | 11 | 285 | 8.0 | 14.5 | 0.00 | 0.56 | 0.56 | 95 | 1014.8 |
| 20260506203134 | 11 | 296 | 12.9 | 17.7 | 0.00 | 0.56 | 0.56 | 95 | 1014.5 |
| 20260506202233 | 11 | 292 | 9.7 | 12.9 | 0.00 | 0.56 | 0.56 | 95 | 1014.6 |
| 20260506201333 | 11 | 292 | 11.3 | 12.9 | 0.00 | 0.56 | 0.56 | 95 | 1014.5 |
| 20260506200434 | 11 | 292 | 9.7 | 16.1 | 0.00 | 0.56 | 0.56 | 95 | 1014.4 |
| 20260506195534 | 11 | 278 | 12.9 | 16.1 | 0.00 | 0.56 | 0.56 | 95 | 1014.2 |
| 20260506194633 | 11 | 289 | 12.9 | 14.5 | 0.00 | 0.56 | 0.56 | 94 | 1014.0 |
| 20260506193733 | 11 | 276 | 12.9 | 17.7 | 0.00 | 0.56 | 0.56 | 94 | 1013.9 |
| 20260506192833 | 11 | 278 | 9.7 | 19.3 | 0.00 | 0.56 | 0.56 | 94 | 1013.8 |
| 20260506190133 | 11 | 282 | 12.9 | 27.4 | 0.00 | 0.56 | 0.56 | 93 | 1013.5 |
| 20260506184334 | 12 | 272 | 12.9 | 16.1 | 0.00 | 0.56 | 0.56 | 93 | 1013.4 |
| 20260506183434 | 12 | 288 | 11.3 | 16.1 | 0.03 | 0.56 | 0.56 | 93 | 1013.3 |
| 20260506182534 | 12 | 289 | 8.0 | 19.3 | 0.03 | 0.56 | 0.56 | 93 | 1013.2 |
| 20260506181634 | 12 | 276 | 14.5 | 19.3 | 0.03 | 0.56 | 0.56 | 93 | 1013.2 |
| 20260506180733 | 12 | 274 | 11.3 | 12.9 | 0.03 | 0.56 | 0.56 | 93 | 1013.1 |
| 20260506175833 | 12 | 270 | 6.4 | 16.1 | 0.03 | 0.56 | 0.56 | 92 | 1013.0 |
| 20260506174934 | 12 | 272 | 12.9 | 19.3 | 0.03 | 0.56 | 0.56 | 92 | 1012.9 |
| 20260506174033 | 12 | 283 | 9.7 | 12.9 | 0.05 | 0.56 | 0.56 | 92 | 1012.7 |
| 20260506172233 | 12 | 285 | 11.3 | 16.1 | 0.13 | 0.53 | 0.53 | 91 | 1012.7 |
| 20260506171333 | 12 | 281 | 9.7 | 20.9 | 0.13 | 0.53 | 0.53 | 91 | 1012.7 |
| 20260506170434 | 12 | 263 | 9.7 | 17.7 | 0.13 | 0.53 | 0.53 | 91 | 1012.6 |
| 20260506165533 | 12 | 272 | 6.4 | 17.7 | 0.13 | 0.53 | 0.53 | 90 | 1012.5 |
| 20260506164633 | 12 | 279 | 8.0 | 17.7 | 0.13 | 0.53 | 0.53 | 89 | 1012.6 |
| 20260506163733 | 12 | 288 | 11.3 | 19.3 | 0.05 | 0.48 | 0.48 | 88 | 1012.5 |
| 20260506162833 | 12 | 273 | 12.9 | 24.1 | 0.00 | 0.43 | 0.43 | 84 | 1012.5 |
| 20260506161934 | 13 | 278 | 12.9 | 20.9 | 0.03 | 0.43 | 0.43 | 84 | 1012.3 |
| 20260506161034 | 13 | 277 | 12.9 | 16.1 | 0.03 | 0.43 | 0.43 | 84 | 1012.4 |
| 20260506155234 | 12 | 275 | 14.5 | 17.7 | 0.03 | 0.43 | 0.43 | 82 | 1012.5 |
| 20260506154333 | 12 | 270 | 11.3 | 17.7 | 0.03 | 0.43 | 0.43 | 81 | 1012.5 |
| 20260506153433 | 13 | 257 | 9.7 | 17.7 | 0.03 | 0.81 | 0.43 | 80 | 1012.5 |
| 20260506152534 | 13 | 282 | 6.4 | 12.9 | 0.03 | 0.81 | 0.43 | 79 | 1012.5 |
| 20260506150733 | 15 | 270 | 6.4 | 16.1 | 0.00 | 0.79 | 0.38 | 79 | 1012.3 |
| 20260506145833 | 15 | 271 | 11.3 | 16.1 | 0.00 | 0.79 | 0.38 | 81 | 1012.2 |
| 20260506144933 | 15 | 277 | 12.9 | 16.1 | 0.00 | 0.79 | 0.38 | 82 | 1012.1 |
| 20260506144033 | 14 | 267 | 9.7 | 16.1 | 0.00 | 0.79 | 0.38 | 81 | 1012.1 |
| 20260506141333 | 15 | 254 | 9.7 | 14.5 | 0.03 | 0.79 | 0.38 | 81 | 1012.1 |